• In France
  • List of Countries
  • For 7 days
  • Water Temperature
  • Satellite Maps
  • Weather Map
  • Weather Widgets
  • user-avatar
    Login

    Hourly Weather Asadabad

    Today, 21 July, Saturday

    Time Temperature Precipitation Wind Pressure Humidity
    00:00 +28°C° 2 mm 1 mps 653 mmHg 73%
    01:00 +27°C° 2 mm 1 mps 653 mmHg 74%
    02:00 +27°C° 2 mm 1 mps 653 mmHg 75%
    03:00 +26°C° 2.2 mm 1 mps 653 mmHg 76%
    04:00 +26°C° 2.2 mm 1 mps 653 mmHg 77%
    05:00 +24°C° 0 mm 0 mps 653 mmHg 78%
    06:00 +27°C° 1.1 mm 1 mps 653 mmHg 72%
    07:00 +28°C° 1.1 mm 1 mps 653 mmHg 67%
    08:00 +29°C° 1.1 mm 1 mps 653 mmHg 61%
    09:00 +30°C° 0.2 mm 1 mps 653 mmHg 57%
    10:00 +31°C° 0.2 mm 2 mps 653 mmHg 54%
    11:00 +32°C° 0.2 mm 2 mps 653 mmHg 50%
    12:00 +34°C° 0 mm 2 mps 653 mmHg 48%
    13:00 +35°C° 0 mm 3 mps 653 mmHg 45%
    14:00 +36°C° 0 mm 3 mps 653 mmHg 43%
    15:00 +36°C° 0.1 mm 3 mps 653 mmHg 42%
    16:00 +36°C° 0.1 mm 3 mps 653 mmHg 42%
    17:00 +36°C° 0.1 mm 3 mps 652 mmHg 41%
    18:00 +35°C° 0.3 mm 2 mps 652 mmHg 46%
    19:00 +32°C° 0.3 mm 2 mps 652 mmHg 50%
    20:00 +31°C° 0.3 mm 1 mps 652 mmHg 55%
    21:00 +30°C° 0.3 mm 1 mps 652 mmHg 57%
    22:00 +30°C° 0.3 mm 1 mps 652 mmHg 60%
    23:00 +29°C° 0.3 mm 1 mps 653 mmHg 63%

    Tomorrow, 22 July, Sunday

    Time Temperature Precipitation Wind Pressure Humidity
    00:00 +29°C° 0.2 mm 1 mps 652 mmHg 64%
    01:00 +28°C° 0.2 mm 1 mps 652 mmHg 66%
    02:00 +28°C° 0.2 mm 1 mps 652 mmHg 67%
    03:00 +28°C° 0 mm 1 mps 651 mmHg 68%
    04:00 +25°C° 0 mm 0 mps 651 mmHg 68%
    05:00 +25°C° 0 mm 0 mps 651 mmHg 69%
    06:00 +28°C° 0 mm 1 mps 652 mmHg 64%
    07:00 +29°C° 0 mm 1 mps 652 mmHg 58%
    08:00 +31°C° 0 mm 1 mps 653 mmHg 53%
    09:00 +32°C° 0 mm 2 mps 653 mmHg 50%
    10:00 +34°C° 0 mm 2 mps 653 mmHg 48%
    11:00 +35°C° 0 mm 2 mps 653 mmHg 46%
    12:00 +35°C° 0.1 mm 3 mps 653 mmHg 44%
    13:00 +36°C° 0.1 mm 3 mps 652 mmHg 42%
    14:00 +37°C° 0.1 mm 3 mps 652 mmHg 40%
    15:00 +37°C° 0.2 mm 3 mps 652 mmHg 40%
    16:00 +37°C° 0.2 mm 3 mps 652 mmHg 39%
    17:00 +37°C° 0.2 mm 3 mps 652 mmHg 39%
    18:00 +35°C° 0.2 mm 3 mps 652 mmHg 43%
    19:00 +34°C° 0.2 mm 3 mps 652 mmHg 48%
    20:00 +32°C° 0.2 mm 2 mps 652 mmHg 52%
    21:00 +31°C° 1.1 mm 2 mps 652 mmHg 55%
    22:00 +31°C° 1.1 mm 2 mps 652 mmHg 58%
    23:00 +30°C° 1.1 mm 1 mps 652 mmHg 62%

    Day after tomorrow, 23 July, Monday

    Time Temperature Precipitation Wind Pressure Humidity
    00:00 +29°C° 2.5 mm 1 mps 652 mmHg 64%
    01:00 +29°C° 2.5 mm 1 mps 652 mmHg 67%
    02:00 +28°C° 2.5 mm 1 mps 651 mmHg 69%
    03:00 +28°C° 1.6 mm 1 mps 651 mmHg 71%
    04:00 +27°C° 1.6 mm 1 mps 651 mmHg 72%
    05:00 +27°C° 1.6 mm 1 mps 651 mmHg 73%
    06:00 +28°C° 0.6 mm 1 mps 651 mmHg 71%
    07:00 +28°C° 0.6 mm 1 mps 652 mmHg 68%
    08:00 +29°C° 0.6 mm 2 mps 652 mmHg 66%
    09:00 +30°C° 0.3 mm 2 mps 652 mmHg 63%
    10:00 +31°C° 0.3 mm 2 mps 652 mmHg 60%
    11:00 +33°C° 0.3 mm 3 mps 653 mmHg 58%
    12:00 +33°C° 0.1 mm 3 mps 652 mmHg 58%
    13:00 +33°C° 0.1 mm 3 mps 652 mmHg 58%
    14:00 +34°C° 0.1 mm 3 mps 652 mmHg 59%
    15:00 +33°C° 0.4 mm 3 mps 652 mmHg 59%
    16:00 +33°C° 0.4 mm 3 mps 651 mmHg 60%
    17:00 +33°C° 0.4 mm 3 mps 651 mmHg 61%
    18:00 +31°C° 0.9 mm 3 mps 651 mmHg 66%
    19:00 +30°C° 0.9 mm 3 mps 651 mmHg 70%
    20:00 +29°C° 0.9 mm 2 mps 652 mmHg 75%
    21:00 +29°C° 2.1 mm 2 mps 652 mmHg 76%
    22:00 +28°C° 2.1 mm 2 mps 652 mmHg 77%
    23:00 +28°C° 2.1 mm 1 mps 652 mmHg 78%

    24 July, Tuesday

    Time Temperature Precipitation Wind Pressure Humidity
    00:00 +28°C° 2.2 mm 1 mps 652 mmHg 78%
    01:00 +27°C° 2.2 mm 1 mps 652 mmHg 79%
    02:00 +27°C° 2.2 mm 1 mps 652 mmHg 79%
    03:00 +27°C° 1.8 mm 1 mps 652 mmHg 79%
    04:00 +26°C° 1.8 mm 1 mps 652 mmHg 79%
    05:00 +26°C° 1.8 mm 1 mps 652 mmHg 78%
    06:00 +27°C° 0.9 mm 1 mps 652 mmHg 73%
    07:00 +28°C° 0.9 mm 1 mps 652 mmHg 68%
    08:00 +29°C° 0.9 mm 1 mps 653 mmHg 63%
    09:00 +30°C° 0.1 mm 2 mps 653 mmHg 59%
    10:00 +32°C° 0.1 mm 2 mps 653 mmHg 56%
    11:00 +34°C° 0.1 mm 2 mps 653 mmHg 52%
    12:00 +34°C° 0 mm 3 mps 653 mmHg 51%
    13:00 +35°C° 0 mm 3 mps 653 mmHg 50%
    14:00 +36°C° 0 mm 3 mps 652 mmHg 49%
    15:00 +35°C° 0.2 mm 3 mps 652 mmHg 50%
    16:00 +35°C° 0.2 mm 3 mps 652 mmHg 50%
    17:00 +35°C° 0.2 mm 3 mps 652 mmHg 51%
    18:00 +34°C° 0.5 mm 3 mps 652 mmHg 57%
    19:00 +33°C° 0.5 mm 3 mps 652 mmHg 62%
    20:00 +30°C° 0.5 mm 2 mps 652 mmHg 67%
    21:00 +30°C° 1.3 mm 2 mps 653 mmHg 69%
    22:00 +29°C° 1.3 mm 1 mps 653 mmHg 70%
    23:00 +29°C° 1.3 mm 1 mps 653 mmHg 71%

    25 July, Wednesday

    Time Temperature Precipitation Wind Pressure Humidity
    00:00 +28°C° 1.2 mm 1 mps 653 mmHg 72%
    01:00 +28°C° 1.2 mm 1 mps 653 mmHg 73%
    02:00 +27°C° 1.2 mm 1 mps 652 mmHg 74%
    03:00 +27°C° 0.5 mm 1 mps 652 mmHg 74%
    04:00 +26°C° 0.5 mm 1 mps 652 mmHg 74%
    05:00 +26°C° 0.5 mm 1 mps 652 mmHg 75%
    06:00 +27°C° 0.2 mm 1 mps 652 mmHg 69%
    07:00 +28°C° 0.2 mm 1 mps 652 mmHg 64%
    08:00 +29°C° 0.2 mm 1 mps 653 mmHg 59%
    09:00 +31°C° 0 mm 2 mps 653 mmHg 55%
    10:00 +32°C° 0 mm 2 mps 653 mmHg 51%
    11:00 +34°C° 0 mm 2 mps 653 mmHg 47%
    12:00 +35°C° 0 mm 3 mps 652 mmHg 45%
    13:00 +36°C° 0 mm 3 mps 652 mmHg 43%
    14:00 +36°C° 0 mm 3 mps 652 mmHg 41%
    15:00 +36°C° 0 mm 3 mps 652 mmHg 41%
    16:00 +36°C° 0 mm 3 mps 652 mmHg 41%
    17:00 +36°C° 0 mm 4 mps 652 mmHg 42%
    18:00 +35°C° 0.4 mm 3 mps 652 mmHg 47%
    19:00 +33°C° 0.4 mm 3 mps 652 mmHg 53%
    20:00 +31°C° 0.4 mm 2 mps 652 mmHg 59%
    21:00 +30°C° 1.8 mm 2 mps 652 mmHg 62%
    22:00 +29°C° 1.8 mm 2 mps 652 mmHg 65%
    23:00 +28°C° 1.8 mm 1 mps 652 mmHg 68%

    26 July, Thursday

    Time Temperature Precipitation Wind Pressure Humidity
    00:00 +28°C° 1.2 mm 1 mps 652 mmHg 70%
    01:00 +27°C° 1.2 mm 1 mps 652 mmHg 71%
    02:00 +27°C° 1.2 mm 1 mps 651 mmHg 73%
    03:00 +26°C° 0.3 mm 1 mps 651 mmHg 74%
    04:00 +26°C° 0.3 mm 1 mps 651 mmHg 74%
    05:00 +25°C° 0.3 mm 1 mps 651 mmHg 75%
    06:00 +27°C° 0.2 mm 1 mps 651 mmHg 69%
    07:00 +28°C° 0.2 mm 1 mps 652 mmHg 64%
    08:00 +29°C° 0.2 mm 1 mps 652 mmHg 58%
    09:00 +30°C° 0.1 mm 2 mps 652 mmHg 54%
    10:00 +31°C° 0.1 mm 2 mps 652 mmHg 50%
    11:00 +34°C° 0.1 mm 3 mps 652 mmHg 46%
    12:00 +34°C° 0 mm 3 mps 652 mmHg 45%
    13:00 +35°C° 0 mm 3 mps 652 mmHg 43%
    14:00 +36°C° 0 mm 3 mps 652 mmHg 42%
    15:00 +35°C° 0.1 mm 4 mps 652 mmHg 42%
    16:00 +35°C° 0.1 mm 4 mps 652 mmHg 42%
    17:00 +35°C° 0.1 mm 4 mps 651 mmHg 43%
    18:00 +33°C° 0.2 mm 3 mps 652 mmHg 48%
    19:00 +31°C° 0.2 mm 3 mps 652 mmHg 54%
    20:00 +30°C° 0.2 mm 2 mps 652 mmHg 60%
    21:00 +29°C° 1.4 mm 2 mps 652 mmHg 63%
    22:00 +28°C° 1.4 mm 2 mps 652 mmHg 66%
    23:00 +28°C° 1.4 mm 2 mps 652 mmHg 69%
    Show more